Regional Weather Roundup
Issued by NWS

Home | Current Version | Previous Version | Graphics & Text | Print | Product List | Glossary On
Versions: 1 2 3 4 5 6 7 8 9 10 11 12 13 14 15 16 17 18 19 20 21 22 23 24 25 26 27 28 29 30 31 32 33 34 35 36 37 38 39 40 41 42 43 44 45 46 47 48 49 50
000
ASUS45 KBOI 160610
RWRID
WEATHER ROUNDUP FOR IDAHO
NATIONAL WEATHER SERVICE BOISE ID
1200 AM MDT TUE SEP 16 2014

NOTE: "FAIR" INDICATES FEW OR NO CLOUDS BELOW 12000 FEET
WITH NO SIGNIFICANT WEATHER AND/OR OBSTRUCTIONS TO VISIBILITY

IDZ012-014-160700-
SOUTHWEST IDAHO


CITY           SKY/WX    TMP DP  RH WIND       PRES   REMARKS
BOISE          CLOUDY    74  40  29 SW10      29.99R
CALDWELL       CLOUDY    72  43  35 SE8       29.97R
MOUNTAIN HOME  MOCLDY    68  35  28 W5        29.99R
$$

IDZ016-017-160700-
SOUTHCENTRAL IDAHO


CITY           SKY/WX    TMP DP  RH WIND       PRES   REMARKS
BURLEY         PTCLDY    56  44  64 SW3       30.05S
JEROME         PTCLDY    69  38  32 E8        30.03S
TWIN FALLS     PTCLDY    67  36  31 SE13      30.03F
$$

IDZ019>023-160700-
SOUTHEAST IDAHO


CITY           SKY/WX    TMP DP  RH WIND       PRES   REMARKS
IDAHO FALLS    CLEAR     54  40  59 CALM      30.11R
POCATELLO      CLEAR     63  34  33 CALM      30.10R
REXBURG        CLEAR     53  39  59 NE5       30.12S
$$

IDZ006-010-011-018-031-032-160700-
CENTRAL IDAHO MOUNTAINS


CITY           SKY/WX    TMP DP  RH WIND       PRES   REMARKS
MCCALL         CLOUDY    56  38  50 CALM      30.09S
HAILEY         PTCLDY    59  37  44 NW9       30.17R
STANLEY          N/A     45  29  53 CALM      30.24S
SALMON         CLEAR     50  43  76 SW5       30.07R
CHALLIS        CLEAR     53  35  50 CALM      30.13R
$$

IDZ002-004-006-007-026-160700-
NORTHERN IDAHO


CITY           SKY/WX    TMP DP  RH WIND       PRES   REMARKS
LEWISTON       CLEAR     69  31  24 SE5       29.86R
LOWELL           N/A     54  50  86 CALM      29.96R
COEUR D`ALENE  PTCLDY    59  41  51 E9        29.93S
MULLAN PASS    PTCLDY    64  21  19 SE3       30.14S
$$


USA.gov is the U.S. government's official web portal to all federal, state and local government web resources and services.